COSMOS 2425 (GLONASS) 1 29670U 06062A 25181.59186890 .00000052 00000-0 00000+0 0 9997 2 29670 64.6912 205.9842 0022652 350.0656 12.0137 2.13116329144085 COSMOS 2426 (GLONASS) 1 29671U 06062B 25181.62253999 .00000052 00000-0 00000+0 0 9997 2 29671 64.6984 206.2189 0021670 181.3595 336.2334 2.12963546144056 COSMOS 2433 (GLONASS) 1 32275U 07052A 25182.84910227 -.00000072 00000-0 00000-0 0 9994 2 32275 65.7695 327.7034 0002681 201.0988 158.8876 2.13104222137595 COSMOS 2432 (GLONASS) 1 32276U 07052B 25182.16517863 -.00000071 00000-0 00000-0 0 9998 2 32276 65.7854 327.8472 0007757 329.0288 171.3180 2.13103236137607 COSMOS 2434 (GLONASS) 1 32393U 07065A 25182.72076260 .00000068 00000-0 00000-0 0 9990 2 32393 64.3167 203.7381 0000726 320.3212 192.5343 2.13101468136307 COSMOS 2436 (GLONASS) 1 32395U 07065C 25181.52260687 .00000054 00000-0 00000-0 0 9992 2 32395 64.3251 203.8471 0016658 352.8454 94.6368 2.13100282136237 COSMOS 2456 (GLONASS) 1 36111U 09070A 25182.46176390 -.00000041 00000-0 00000-0 0 9998 2 36111 64.8043 82.9555 0004180 330.4617 139.7115 2.13103785120954 COSMOS 2457 (GLONASS) 1 36112U 09070B 25181.38987926 -.00000033 00000-0 00000-0 0 9995 2 36112 64.7890 82.8429 0003349 135.1897 3.3339 2.13101256120932 COSMOS 2458 (GLONASS) 1 36113U 09070C 25182.05808693 -.00000038 00000-0 00000-0 0 9999 2 36113 64.7945 82.8667 0005017 328.9857 217.0250 2.13082921120977 COSMOS 2459 (GLONASS) 1 36400U 10007A 25181.07345969 -.00000070 00000-0 00000-0 0 9999 2 36400 65.6393 326.4681 0024902 346.3606 11.1253 2.13116863119311 COSMOS 2461 (GLONASS) 1 36401U 10007B 25179.97433851 -.00000070 00000-0 00000-0 0 9994 2 36401 65.6348 326.4657 0019942 2.0462 176.2842 2.13106810119294 COSMOS 2460 (GLONASS) 1 36402U 10007C 25180.74026916 -.00000070 00000-0 00000-0 0 9992 2 36402 65.6197 326.3721 0001728 117.2640 239.9018 2.13106285119218 COSMOS 2464 (GLONASS) 1 37139U 10041C 25182.71594517 .00000070 00000-0 00000-0 0 9993 2 37139 63.9158 202.2636 0032986 8.9845 349.8654 2.13099189115413 COSMOS 2471 (GLONASS) 1 37372U 11009A 25181.87405094 -.00000071 00000-0 00000-0 0 9996 2 37372 65.6066 326.3373 0008523 328.8204 24.3679 2.12911489111590 COSMOS 2474 (GLONASS) 1 37829U 11055A 25182.73655980 -.00000041 00000-0 00000-0 0 9998 2 37829 65.0893 84.7240 0010239 247.2695 296.2520 2.13101363106987 COSMOS 2476 (GLONASS) 1 37867U 11064A 25181.95952203 -.00000034 00000-0 00000+0 0 9992 2 37867 65.0693 84.7471 0022209 237.7935 116.8030 2.13101601106320 COSMOS 2477 (GLONASS) 1 37868U 11064B 25182.44003360 -.00000038 00000-0 00000-0 0 9994 2 37868 65.0763 84.8067 0019340 238.9435 304.3503 2.13103130106284 COSMOS 2475 (GLONASS) 1 37869U 11064C 25182.49975515 -.00000039 00000-0 00000+0 0 9990 2 37869 65.0831 84.8232 0024707 253.3807 292.4153 2.13101971106281 COSMOS 2485 (GLONASS) 1 39155U 13019A 25182.37461250 -.00000037 00000-0 00000-0 0 9994 2 39155 65.2234 85.3952 0022602 233.3815 126.4483 2.13104678 94807 COSMOS 2492 (GLONASS) 1 39620U 14012A 25182.80129373 -.00000073 00000-0 00000-0 0 9990 2 39620 65.4976 325.8244 0010594 322.7191 37.2045 2.13103301 87775 COSMOS 2500 (GLONASS) 1 40001U 14032A 25181.09861609 -.00000070 00000-0 00000-0 0 9999 2 40001 65.4349 325.6572 0007354 187.6418 172.3417 2.13105947 85956 COSMOS 2501 (GLONASS) 1 40315U 14075A 25180.88691087 .00000049 00000-0 00000-0 0 9996 2 40315 63.6163 202.5685 0021850 211.9025 148.0100 2.13101478 82342 COSMOS 2514 (GLONASS) 1 41330U 16008A 25181.80913038 -.00000071 00000-0 00000-0 0 9994 2 41330 65.2259 325.0466 0011048 200.1139 159.8390 2.13102807 73131 COSMOS 2516 (GLONASS) 1 41554U 16032A 25179.55997139 .00000045 00000-0 00000-0 0 9992 2 41554 63.8433 203.2020 0017261 213.1765 146.7648 2.13106642 70692 COSMOS 2522 (GLONASS) 1 42939U 17055A 25182.11721489 .00000060 00000-0 00000-0 0 9992 2 42939 64.0780 203.8348 0010640 241.0025 118.9376 2.13101989 60495